Voltar ao catálogo

STARLINK-35102

AtivoComunicaçõesVLEO
NORAD 65839·PAYLOAD·🇺🇸 United States

Lançado Sep 29, 2025 de Vandenberg Space Force Base

Loading…

Próximas Passagens (próximas 24 horas)

TLE

AtualizadoSource: CelesTrak SupGP

Época: Sep 14, 2026, 21:38 UTC

1 65839C 25221S   26257.90187500  .00073746  00000+0  21786-2 0  2574
2 65839  53.1571 286.0012 0001252  89.9115 196.0362 15.34358063    13

Acompanhe STARLINK-35102 em tempo real com AllMySat

Download on the App Store